Time,TemperatureF,DewpointF,PressureIn,WindDirection,WindDirectionDegrees,WindSpeedMPH,WindSpeedGustMPH,Humidity,HourlyPrecipIn,Conditions,Clouds,dailyrainin,SoftwareType,DateUTC
2013-01-30 00:12:00,57.2,55.0,29.48,South,177,11.0,-999.0,92,-99.99,,,0.10,weatherlink.com 1.10,2013-01-30 05:12:00,
2013-01-30 00:27:00,57.9,55.0,29.47,SSE,167,7.0,-999.0,90,-99.99,,,0.10,weatherlink.com 1.10,2013-01-30 05:27:00,
2013-01-30 00:42:00,58.0,55.0,29.45,SSE,160,4.0,-999.0,91,-99.99,,,0.12,weatherlink.com 1.10,2013-01-30 05:42:00,
2013-01-30 00:57:00,57.6,55.0,29.44,SSE,153,3.0,-999.0,92,-99.99,,,0.12,weatherlink.com 1.10,2013-01-30 05:57:00,
2013-01-30 01:12:00,57.5,55.0,29.42,SW,224,4.0,-999.0,92,-99.99,,,0.12,weatherlink.com 1.10,2013-01-30 06:12:00,
2013-01-30 01:27:00,58.2,56.0,29.40,SSE,165,9.0,-999.0,92,-99.99,,,0.16,weatherlink.com 1.10,2013-01-30 06:27:00,
2013-01-30 01:42:00,58.7,56.0,29.39,ESE,121,4.0,-999.0,92,-99.99,,,0.16,weatherlink.com 1.10,2013-01-30 06:42:00,
2013-01-30 01:57:00,59.7,57.0,29.38,SSE,155,9.0,-999.0,91,-99.99,,,0.17,weatherlink.com 1.10,2013-01-30 06:57:00,
2013-01-30 02:12:00,60.4,57.0,29.36,South,184,15.0,-999.0,89,-99.99,,,0.17,weatherlink.com 1.10,2013-01-30 07:12:00,
2013-01-30 02:27:00,61.2,58.0,29.35,South,169,9.0,-999.0,88,-99.99,,,0.00,weatherlink.com 1.10,2013-01-30 07:27:00,
2013-01-30 02:42:00,61.7,58.0,29.36,WNW,297,9.0,-999.0,88,-99.99,,,0.00,weatherlink.com 1.10,2013-01-30 07:42:00,
2013-01-30 02:57:00,61.2,57.0,29.34,South,172,11.0,-999.0,87,-99.99,,,0.00,weatherlink.com 1.10,2013-01-30 07:57:00,
2013-01-30 03:12:00,-999.0,-99.9,29.32,North,-999,-999.0,-999.0,-999,-99.99,,,0.00,weatherlink.com 1.10,2013-01-30 08:12:00,
2013-01-30 03:27:00,-999.0,-99.9,29.32,North,-999,-999.0,-999.0,-999,-99.99,,,0.00,weatherlink.com 1.10,2013-01-30 08:27:00,
2013-01-30 03:42:00,-999.0,-99.9,29.30,North,-999,-999.0,-999.0,-999,-99.99,,,0.00,weatherlink.com 1.10,2013-01-30 08:42:00,
2013-01-30 03:57:00,-999.0,-99.9,29.30,North,-999,-999.0,-999.0,-999,-99.99,,,0.00,weatherlink.com 1.10,2013-01-30 08:57:00,
2013-01-30 04:12:00,-999.0,-99.9,29.30,North,-999,-999.0,-999.0,-999,-99.99,,,0.00,weatherlink.com 1.10,2013-01-30 09:12:00,
2013-01-30 04:27:00,-999.0,-99.9,29.29,North,-999,-999.0,-999.0,-999,-99.99,,,0.00,weatherlink.com 1.10,2013-01-30 09:27:00,
2013-01-30 04:42:00,-999.0,-99.9,29.32,North,-999,-999.0,-999.0,-999,-99.99,,,0.00,weatherlink.com 1.10,2013-01-30 09:42:00,
2013-01-30 04:57:00,-999.0,-99.9,29.32,North,-999,-999.0,-999.0,-999,-99.99,,,0.00,weatherlink.com 1.10,2013-01-30 09:57:00,
2013-01-30 05:12:00,-999.0,-99.9,29.33,North,-999,-999.0,-999.0,-999,-99.99,,,0.00,weatherlink.com 1.10,2013-01-30 10:12:00,
2013-01-30 05:27:00,-999.0,-99.9,29.33,North,-999,-999.0,-999.0,-999,-99.99,,,0.00,weatherlink.com 1.10,2013-01-30 10:27:00,
2013-01-30 05:42:00,-999.0,-99.9,29.34,North,-999,-999.0,-999.0,-999,-99.99,,,0.00,weatherlink.com 1.10,2013-01-30 10:42:00,
2013-01-30 05:57:00,-999.0,-99.9,29.33,North,-999,-999.0,-999.0,-999,-99.99,,,0.00,weatherlink.com 1.10,2013-01-30 10:57:00,
2013-01-30 06:12:00,-999.0,-99.9,29.36,North,-999,-999.0,-999.0,-999,-99.99,,,0.00,weatherlink.com 1.10,2013-01-30 11:12:00,
2013-01-30 06:27:00,-999.0,-99.9,29.35,North,-999,-999.0,-999.0,-999,-99.99,,,0.00,weatherlink.com 1.10,2013-01-30 11:27:00,
2013-01-30 06:42:00,-999.0,-99.9,29.35,North,-999,-999.0,-999.0,-999,-99.99,,,0.00,weatherlink.com 1.10,2013-01-30 11:42:00,
2013-01-30 06:57:00,-999.0,-99.9,29.35,North,-999,-999.0,-999.0,-999,-99.99,,,0.00,weatherlink.com 1.10,2013-01-30 11:57:00,
2013-01-30 07:12:00,-999.0,-99.9,29.33,North,-999,-999.0,-999.0,-999,-99.99,,,0.00,weatherlink.com 1.10,2013-01-30 12:12:00,
2013-01-30 07:27:00,-999.0,-99.9,29.34,North,-999,-999.0,-999.0,-999,-99.99,,,0.00,weatherlink.com 1.10,2013-01-30 12:27:00,
2013-01-30 07:42:00,-999.0,-99.9,29.34,North,-999,-999.0,-999.0,-999,-99.99,,,0.00,weatherlink.com 1.10,2013-01-30 12:42:00,
2013-01-30 07:57:00,-999.0,-99.9,29.32,North,-999,-999.0,-999.0,-999,-99.99,,,0.00,weatherlink.com 1.10,2013-01-30 12:57:00,
2013-01-30 08:12:00,-999.0,-99.9,29.28,North,-999,-999.0,-999.0,-999,-99.99,,,0.00,weatherlink.com 1.10,2013-01-30 13:12:00,
2013-01-30 08:27:00,-999.0,-99.9,29.31,North,-999,-999.0,-999.0,-999,-99.99,,,0.00,weatherlink.com 1.10,2013-01-30 13:27:00,
2013-01-30 08:42:00,-999.0,-99.9,29.28,North,-999,-999.0,-999.0,-999,-99.99,,,0.00,weatherlink.com 1.10,2013-01-30 13:42:00,
2013-01-30 08:57:00,-999.0,-99.9,29.28,North,-999,-999.0,-999.0,-999,-99.99,,,0.00,weatherlink.com 1.10,2013-01-30 13:57:00,
2013-01-30 09:12:00,51.2,50.0,29.27,SE,142,3.0,-999.0,97,-99.99,,,0.00,weatherlink.com 1.10,2013-01-30 14:12:00,
2013-01-30 09:27:00,50.9,50.0,29.30,South,190,2.0,-999.0,98,-99.99,,,0.00,weatherlink.com 1.10,2013-01-30 14:27:00,
2013-01-30 09:42:00,51.0,51.0,29.30,South,187,3.0,-999.0,98,-99.99,,,0.00,weatherlink.com 1.10,2013-01-30 14:42:00,
2013-01-30 09:57:00,51.2,51.0,29.29,SSE,162,3.0,-999.0,98,-99.99,,,0.00,weatherlink.com 1.10,2013-01-30 14:57:00,
2013-01-30 10:12:00,52.0,52.0,29.29,South,190,2.0,-999.0,98,-99.99,,,0.00,weatherlink.com 1.10,2013-01-30 15:12:00,
2013-01-30 10:27:00,52.5,52.0,29.32,SSW,202,1.0,-999.0,97,-99.99,,,0.00,weatherlink.com 1.10,2013-01-30 15:27:00,
2013-01-30 10:42:00,53.1,52.0,29.32,SSW,194,1.0,-999.0,96,-99.99,,,0.00,weatherlink.com 1.10,2013-01-30 15:42:00,
2013-01-30 10:57:00,53.6,52.0,29.33,SW,214,3.0,-999.0,95,-99.99,,,0.00,weatherlink.com 1.10,2013-01-30 15:57:00,
2013-01-30 11:12:00,53.8,52.0,29.30,SW,217,2.0,-999.0,94,-99.99,,,0.00,weatherlink.com 1.10,2013-01-30 16:12:00,
2013-01-30 11:27:00,54.3,52.0,29.30,South,172,5.0,-999.0,93,-99.99,,,0.00,weatherlink.com 1.10,2013-01-30 16:27:00,
2013-01-30 11:42:00,54.8,53.0,29.27,SSW,213,5.0,-999.0,92,-99.99,,,0.00,weatherlink.com 1.10,2013-01-30 16:42:00,
2013-01-30 11:57:00,55.1,53.0,29.29,South,170,2.0,-999.0,91,-99.99,,,0.00,weatherlink.com 1.10,2013-01-30 16:57:00,
2013-01-30 12:12:00,55.7,53.0,29.28,SSE,167,2.0,-999.0,90,-99.99,,,0.00,weatherlink.com 1.10,2013-01-30 17:12:00,
2013-01-30 12:27:00,56.1,53.0,29.27,SW,221,5.0,-999.0,90,-99.99,,,0.00,weatherlink.com 1.10,2013-01-30 17:27:00,
2013-01-30 12:42:00,56.4,53.0,29.26,WSW,243,1.0,-999.0,89,-99.99,,,0.00,weatherlink.com 1.10,2013-01-30 17:42:00,
2013-01-30 12:57:00,56.5,53.0,29.25,South,188,1.0,-999.0,89,-99.99,,,0.00,weatherlink.com 1.10,2013-01-30 17:57:00,
2013-01-30 13:12:00,56.4,53.0,29.26,SW,215,3.0,-999.0,88,-99.99,,,0.00,weatherlink.com 1.10,2013-01-30 18:12:00,
2013-01-30 13:27:00,56.4,53.0,29.24,WNW,284,1.0,-999.0,88,-99.99,,,0.00,weatherlink.com 1.10,2013-01-30 18:27:00,
2013-01-30 13:42:00,56.5,53.0,29.26,SSE,167,2.0,-999.0,87,-99.99,,,0.00,weatherlink.com 1.10,2013-01-30 18:42:00,
2013-01-30 13:57:00,56.6,53.0,29.24,SSE,167,4.0,-999.0,86,-99.99,,,0.00,weatherlink.com 1.10,2013-01-30 18:57:00,
2013-01-30 14:12:00,56.5,52.0,29.24,South,188,10.0,-999.0,86,-99.99,,,0.00,weatherlink.com 1.10,2013-01-30 19:12:00,
2013-01-30 14:27:00,56.3,52.0,29.23,SSW,200,10.0,-999.0,86,-99.99,,,0.00,weatherlink.com 1.10,2013-01-30 19:27:00,
2013-01-30 14:42:00,56.1,52.0,29.23,WSW,257,2.0,-999.0,87,-99.99,,,0.00,weatherlink.com 1.10,2013-01-30 19:42:00,
2013-01-30 14:57:00,55.9,52.0,29.22,SSW,205,6.0,-999.0,87,-99.99,,,0.00,weatherlink.com 1.10,2013-01-30 19:57:00,
2013-01-30 15:12:00,55.8,52.0,29.23,SSW,208,8.0,-999.0,87,-99.99,,,0.00,weatherlink.com 1.10,2013-01-30 20:12:00,
2013-01-30 15:27:00,55.2,52.0,29.20,South,169,7.0,-999.0,90,-99.99,,,0.00,weatherlink.com 1.10,2013-01-30 20:27:00,
2013-01-30 15:42:00,54.7,52.0,29.19,SSW,207,5.0,-999.0,91,-99.99,,,0.00,weatherlink.com 1.10,2013-01-30 20:42:00,
2013-01-30 15:57:00,53.9,52.0,29.21,NE,50,0.0,-999.0,94,-99.99,,,0.01,weatherlink.com 1.10,2013-01-30 20:57:00,
2013-01-30 16:12:00,54.0,52.0,29.22,WSW,257,13.0,-999.0,93,-99.99,,,0.01,weatherlink.com 1.10,2013-01-30 21:12:00,
2013-01-30 16:27:00,53.9,52.0,29.22,South,188,9.0,-999.0,92,-99.99,,,0.01,weatherlink.com 1.10,2013-01-30 21:27:00,
2013-01-30 16:42:00,53.9,51.0,29.19,East,82,3.0,-999.0,91,-99.99,,,0.01,weatherlink.com 1.10,2013-01-30 21:42:00,
2013-01-30 16:57:00,53.7,51.0,29.19,SSW,197,8.0,-999.0,90,-99.99,,,0.01,weatherlink.com 1.10,2013-01-30 21:57:00,
2013-01-30 17:12:00,53.6,51.0,29.19,SSE,165,7.0,-999.0,90,-99.99,,,0.01,weatherlink.com 1.10,2013-01-30 22:12:00,
2013-01-30 17:27:00,53.4,51.0,29.17,WSW,252,4.0,-999.0,90,-99.99,,,0.01,weatherlink.com 1.10,2013-01-30 22:27:00,
2013-01-30 17:42:00,53.0,50.0,29.17,South,181,3.0,-999.0,90,-99.99,,,0.01,weatherlink.com 1.10,2013-01-30 22:42:00,
2013-01-30 17:57:00,53.0,51.0,29.16,South,181,6.0,-999.0,91,-99.99,,,0.01,weatherlink.com 1.10,2013-01-30 22:57:00,
2013-01-30 18:12:00,53.1,51.0,29.15,SSW,204,9.0,-999.0,91,-99.99,,,0.01,weatherlink.com 1.10,2013-01-30 23:12:00,
2013-01-30 18:27:00,53.2,51.0,29.15,SE,134,10.0,-999.0,91,-99.99,,,0.01,weatherlink.com 1.10,2013-01-30 23:27:00,
2013-01-30 18:42:00,53.4,50.0,29.14,SSW,200,11.0,-999.0,89,-99.99,,,0.01,weatherlink.com 1.10,2013-01-30 23:42:00,
2013-01-30 18:57:00,52.6,48.0,29.17,West,278,5.0,-999.0,84,-99.99,,,0.01,weatherlink.com 1.10,2013-01-30 23:57:00,
2013-01-30 19:12:00,47.8,45.0,29.16,SSW,212,5.0,-999.0,91,-99.99,,,0.05,weatherlink.com 1.10,2013-01-31 00:12:00,
2013-01-30 19:27:00,46.8,45.0,29.16,South,187,2.0,-999.0,93,-99.99,,,0.06,weatherlink.com 1.10,2013-01-31 00:27:00,
2013-01-30 19:42:00,46.4,45.0,29.18,WNW,290,4.0,-999.0,93,-99.99,,,0.07,weatherlink.com 1.10,2013-01-31 00:42:00,
2013-01-30 19:57:00,45.3,43.0,29.19,East,79,10.0,-999.0,90,-99.99,,,0.07,weatherlink.com 1.10,2013-01-31 00:57:00,
2013-01-30 20:12:00,43.3,41.0,29.19,SW,229,9.0,-999.0,91,-99.99,,,0.08,weatherlink.com 1.10,2013-01-31 01:12:00,
2013-01-30 20:27:00,41.7,39.0,29.20,SSW,193,5.0,-999.0,90,-99.99,,,0.09,weatherlink.com 1.10,2013-01-31 01:27:00,
2013-01-30 20:42:00,40.6,38.0,29.20,WNW,297,4.0,-999.0,89,-99.99,,,0.09,weatherlink.com 1.10,2013-01-31 01:42:00,
2013-01-30 20:57:00,39.9,37.0,29.21,SW,218,10.0,-999.0,90,-99.99,,,0.09,weatherlink.com 1.10,2013-01-31 01:57:00,
2013-01-30 21:12:00,39.6,37.0,29.20,SE,145,5.0,-999.0,90,-99.99,,,0.09,weatherlink.com 1.10,2013-01-31 02:12:00,
2013-01-30 21:27:00,39.3,37.0,29.20,SW,236,9.0,-999.0,90,-99.99,,,0.09,weatherlink.com 1.10,2013-01-31 02:27:00,
2013-01-30 21:42:00,39.2,37.0,29.20,NW,309,4.0,-999.0,90,-99.99,,,0.09,weatherlink.com 1.10,2013-01-31 02:42:00,
2013-01-30 21:57:00,39.2,36.0,29.20,SSW,208,8.0,-999.0,88,-99.99,,,0.09,weatherlink.com 1.10,2013-01-31 02:57:00,
2013-01-30 22:12:00,39.1,36.0,29.19,WSW,257,7.0,-999.0,87,-99.99,,,0.09,weatherlink.com 1.10,2013-01-31 03:12:00,
2013-01-30 22:27:00,38.9,35.0,29.19,NNW,342,6.0,-999.0,87,-99.99,,,0.09,weatherlink.com 1.10,2013-01-31 03:27:00,
2013-01-30 22:42:00,38.4,36.0,29.20,WNW,287,6.0,-999.0,89,-99.99,,,0.09,weatherlink.com 1.10,2013-01-31 03:42:00,
2013-01-30 22:57:00,38.3,35.0,29.21,WNW,283,10.0,-999.0,86,-99.99,,,0.09,weatherlink.com 1.10,2013-01-31 03:57:00,
2013-01-30 23:12:00,36.6,31.0,29.24,West,281,16.0,-999.0,80,-99.99,,,0.09,weatherlink.com 1.10,2013-01-31 04:12:00,
2013-01-30 23:27:00,35.5,30.0,29.25,West,267,17.0,-999.0,81,-99.99,,,0.09,weatherlink.com 1.10,2013-01-31 04:27:00,
2013-01-30 23:42:00,35.2,31.0,29.28,WNW,295,12.0,-999.0,83,-99.99,,,0.09,weatherlink.com 1.10,2013-01-31 04:42:00,
2013-01-30 23:57:00,34.9,29.0,29.29,WNW,283,13.0,-999.0,80,-99.99,,,0.09,weatherlink.com 1.10,2013-01-31 04:57:00,